Location: Mountain Grove
(34.0887°N, 86.6172°W)
Time: 21:32:10
(UTC+00:00)

Cosmos 1943 Rocket - Pass Details

Date: 14 July 2020
Orbit: 811 x 845 km, 71.0° (Epoch: 08 August)

Event Time Altitude Azimuth Distance (km) Brightness Sun altitude
Rises 03:10:26 0° 358° (N) 3,406 6.1 -22.3°
Reaches altitude 10° 03:14:11 10° 23° (NNE) 2,464 4.9 -22.8°
Maximum altitude 03:17:08 14° 55° (NE) 2,164 4.3 -23.2°
Enters shadow 03:18:24 13° 69° (ENE) 2,218 4.2 -23.3°
